{"data":{"norad_id":69279,"intl_designator":"2026-118N","name":"KUIPER-00594","alt_names":[],"object_type":"PAYLOAD","status":"ACTIVE","operator":null,"country":"US","launch_date":"2026-05-29","launch_site_code":"AFETR","launch_vehicle":null,"mission":null,"orbit_class":"UNKNOWN","rcs_meters":null,"size_class":null,"mass_kg":null,"dimensions":null,"purposes":[],"wikipedia_slug":null,"has_3d_model":false,"image_url":null,"decayed_at":null,"tle_current":{"epoch":"2026-09-20T05:12:52.225632Z","epoch_age_seconds":54547,"freshness":"FRESH","line1":"1 69279U 26118N   26263.21727113  .00001637  00000+0  24373-3 0  9992","line2":"2 69279  51.9036 327.9580 0001269  83.9450 276.1656 14.79939301 18402","mean_motion":14.79939301,"eccentricity":0.0001269,"inclination_deg":51.9036,"raan_deg":327.958,"arg_perigee_deg":83.945,"mean_anomaly_deg":276.1656,"bstar":0.00024373,"rev_number":1840,"period_min":97.301287899239,"perigee_km":628.62646741743,"apogee_km":630.40500968248,"semimajor_km":7007.65273855,"source":"CELESTRAK","updated_at":"2026-09-20T09:00:24.779395Z"}}}